Humidity-temperature Sensor

Selected Measurement Type: Air Temperature

 
Air Temperature [°C]     6 entries per hour
Showing data from 7/30/2018 (00:00:00 Z) to 7/29/2018 (00:01:00 Z)
Previous Next [ Day | 3-Days | 7-Days ]
First Last
Prev [ Day | 3-Days | 7-Days ] Next
First Last

Start Time:     :
End Time:     :     
Time (in GMT) :00 :50 :40 :30 :20 :10
Previous Next [ Day | 3-Days | 7-Days ]
First Last
Prev [ Day | 3-Days | 7-Days ] Next
First Last


123 => good data
MM => data is determined as missing
-- => data not received/configured
Back to Top Back to Top
7/30/2018 00:00 to 23:10 28.66 28.74 28.84 28.51 28.63 28.65
7/29/2018 23:00 to 22:10 28.64 28.70 28.69 28.51 28.58 28.52
7/29/2018 22:00 to 21:10 28.42 28.34 28.31 28.15 28.40 28.39
7/29/2018 21:00 to 20:10 28.16 28.25 28.30 28.45 28.64 28.66
7/29/2018 20:00 to 19:10 28.55 28.46 28.47 28.46 28.39 28.37
7/29/2018 19:00 to 18:10 28.35 28.37 28.39 28.34 28.27 28.30
7/29/2018 18:00 to 17:10 28.33 28.29 28.28 28.11 28.13 28.22
7/29/2018 17:00 to 16:10 28.11 28.19 28.03 28.11 28.08 28.07
7/29/2018 16:00 to 15:10 -- -- -- -- -- --
7/29/2018 15:00 to 14:10 28.07 28.10 28.01 28.04 28.05 28.09
7/29/2018 14:00 to 13:10 28.05 28.09 28.15 28.23 28.34 28.33
7/29/2018 13:00 to 12:10 28.20 28.16 28.30 28.28 28.26 28.08
7/29/2018 12:00 to 11:10 28.06 27.92 27.83 27.76 28.01 28.22
7/29/2018 11:00 to 10:10 28.40 28.31 28.40 28.42 28.45 28.47
7/29/2018 10:00 to 9:10 28.41 28.36 28.43 28.38 28.49 28.49
7/29/2018 09:00 to 8:10 28.50 28.40 28.43 28.42 28.48 28.50
7/29/2018 08:00 to 7:10 28.47 28.38 28.42 28.42 28.52 28.50
7/29/2018 07:00 to 6:10 28.64 28.50 28.18 28.34 28.31 28.28
7/29/2018 06:00 to 5:10 28.30 28.20 28.22 28.05 28.08 28.06
7/29/2018 05:00 to 4:10 28.11 27.97 27.94 28.09 28.49 28.46
7/29/2018 04:00 to 3:10 28.59 28.56 28.66 28.56 28.61 28.64
7/29/2018 03:00 to 2:10 28.68 28.65 28.60 28.57 28.59 28.41
7/29/2018 02:00 to 1:10 28.44 28.36 28.41 28.40 28.37 28.47
7/29/2018 01:00 to 0:10 28.48 28.45 28.35 28.41 28.43 28.44